Location: Bonn
(50.7330°N, 7.1000°E)
Time: 01:06:14
(UTC+02:00)

Cosmos 1933 Rocket - Visible Passes

Search period start: 26 June 2016 00:00
Search period end: 06 July 2016 00:00
Orbit: 608 x 630 km, 82.5° (Epoch: 25 June)

Date Brightness Start Highest point End Pass type
(mag) Time Alt. Az. Time Alt. Az. Time Alt. Az.
26 Jun 3.6 00:04:49 16° SSW 00:08:25 84° WNW 00:12:55 10° N visible
26 Jun 6.2 01:45:07 10° W 01:47:03 12° WNW 01:48:58 10° NW visible
26 Jun 5.1 22:44:55 10° SE 22:48:15 21° E 22:51:35 10° NE visible
27 Jun 4.4 00:21:43 12° SSW 00:25:47 49° WNW 00:30:09 10° N visible
27 Jun 4.4 23:01:28 11° SSE 23:05:21 34° E 23:09:24 10° NNE visible
28 Jun 5.2 00:39:18 10° SW 00:43:15 30° WNW 00:47:12 10° N visible
28 Jun 3.7 23:18:19 11° S 23:22:32 59° E 23:26:56 10° NNE visible
29 Jun 5.9 00:57:36 10° WSW 01:00:48 19° WNW 01:04:01 10° NNW visible
29 Jun 3.7 23:35:20 10° SSW 23:39:49 81° W 23:44:19 10° N visible
30 Jun 6.3 01:16:43 10° W 01:18:28 12° WNW 01:20:14 10° NW visible
30 Jun 4.5 23:52:52 10° SSW 23:57:11 47° WNW 00:01:31 10° N visible
01 Jul 4.4 22:32:40 10° SSE 22:36:44 36° E 22:40:49 10° NNE visible
02 Jul 5.4 00:10:46 10° SW 00:14:39 29° WNW 00:18:34 10° N visible
02 Jul 3.7 22:49:31 10° S 22:53:55 61° E 22:58:20 10° NNE visible
03 Jul 6.1 00:29:07 10° WSW 00:32:13 18° WNW 00:35:21 10° NNW visible
03 Jul 3.7 23:06:45 10° SSW 23:11:12 78° W 23:15:41 10° N visible
04 Jul 6.5 00:48:21 10° W 00:49:54 12° WNW 00:51:26 10° NW visible
04 Jul 4.7 23:24:18 10° SSW 23:28:35 45° WNW 23:32:54 10° N visible
05 Jul 5.6 23:42:13 10° SW 23:46:04 28° WNW 23:49:55 10° N visible
